Weather History for KJWG - February, 2013

Change the Weather History Date:

Tuesday, February 5, 2013

  Actual Average Record
Temperature  
Mean Temperature 48 °F -  
Max Temperature 67 °F 45 °F 78 °F (1963)
Min Temperature 28 °F 26 °F 0 °F (1989)
Degree Days  
Heating Degree Days 18    
Moisture  
Dew Point 34 °F    
Average Humidity 69    
Maximum Humidity 96    
Minimum Humidity 31    
Precipitation  
Precipitation 0.00 in - - ()
Sea Level Pressure  
Sea Level Pressure 29.99 in    
Wind  
Wind Speed 2 mph (ENE)    
Max Wind Speed 7 mph    
Max Gust Speed -    
Visibility 10 miles    
Events      
Averages and records for this station are not official NWS values.
T = Trace of Precipitation, MM = Missing Value Source: NWS Daily Summary

Daily Weather History Graph

Daily Weather History Graph

Search for Another Location

Airport or City:

Trip Planner

Search our weather history database for the weather conditions in past years. The results will help you decide how hot, cold, wet, or windy it might be!

Date:

Astronomy

Feb. 05, 2013 Rise Set
Actual Time 7:30 AM CST 6:05 PM CST
Civil Twilight 7:03 AM CST 6:32 PM CST
Nautical Twilight 6:33 AM CST 7:02 PM CST
Astronomical Twilight 6:03 AM CST 7:32 PM CST
Moon 3:10 AM CST (2/5) 1:28 PM CST (2/5)
Length of Visible Light 11h 28m
Length of Day
10h 34m
Waning Crescent, 26% of the Moon is Illuminated
Feb 5
Waning Crescent
Feb 10
New
Feb 17
First Quarter
Feb 25
Full
Mar 4
Last Quarter

Hourly Weather History & Observations

Time (CST) Temp. Windchill Dew Point Humidity Pressure Visibility Wind Dir Wind Speed Gust Speed Precip Events Conditions
12:15 AM 33.1 °F 27.7 °F 29.8 °F 88% 29.97 in 10.0 mi WNW 5.8 mph - N/A   Clear
12:35 AM 33.1 °F 30.0 °F 30.2 °F 89% 29.97 in 10.0 mi NW 3.5 mph - N/A   Clear
1:15 AM 32.9 °F 29.8 °F 30.0 °F 89% 29.96 in 10.0 mi WNW 3.5 mph - N/A   Clear
1:35 AM 32.5 °F - 29.8 °F 90% 29.96 in 10.0 mi Calm Calm - N/A   Clear
1:55 AM 34.0 °F - 29.8 °F 85% 29.95 in 10.0 mi Calm Calm - N/A   Clear
2:15 AM 34.0 °F - 29.7 °F 84% 29.95 in 10.0 mi Calm Calm - N/A   Clear
2:35 AM 32.2 °F - 30.2 °F 92% 29.94 in 10.0 mi Calm Calm - N/A   Clear
2:55 AM 32.0 °F - 29.3 °F 90% 29.94 in 10.0 mi Calm Calm - N/A   Clear
3:15 AM 31.8 °F - 29.3 °F 90% 29.94 in 10.0 mi Calm Calm - N/A   Clear
3:35 AM 32.7 °F - 29.7 °F 88% 29.94 in 10.0 mi Calm Calm - N/A   Clear
4:15 AM 31.5 °F 28.1 °F 28.9 °F 90% 29.95 in 10.0 mi West 3.5 mph - N/A   Clear
4:35 AM 30.6 °F 25.8 °F 28.4 °F 92% 29.93 in 10.0 mi SW 4.6 mph - N/A   Clear
4:55 AM 28.9 °F - 27.5 °F 94% 29.94 in 10.0 mi Calm Calm - N/A   Clear
5:15 AM 29.1 °F - 27.5 °F 94% 29.94 in 10.0 mi Calm Calm - N/A   Clear
5:35 AM 28.4 °F - 27.1 °F 95% 29.95 in 10.0 mi Calm Calm - N/A   Clear
5:55 AM 30.2 °F - 28.0 °F 92% 29.95 in 10.0 mi Calm Calm - N/A   Clear
6:15 AM 30.6 °F - 28.2 °F 91% 29.95 in 10.0 mi Calm Calm - N/A   Clear
6:35 AM 29.3 °F - 27.5 °F 93% 29.96 in 10.0 mi Calm Calm - N/A   Clear
6:55 AM 30.2 °F - 28.2 °F 92% 29.97 in 10.0 mi Calm Calm - N/A   Clear
7:15 AM 28.6 °F 23.5 °F 27.5 °F 96% 29.98 in 10.0 mi WNW 4.6 mph - N/A   Clear
7:35 AM 29.5 °F 25.9 °F 28.0 °F 94% 29.98 in 10.0 mi NW 3.5 mph - N/A   Clear
7:55 AM 30.9 °F - 28.4 °F 90% 29.98 in 10.0 mi Calm Calm - N/A   Clear
8:15 AM 30.7 °F - 28.4 °F 91% 29.99 in 10.0 mi Calm Calm - N/A   Clear
8:35 AM 32.2 °F - 31.1 °F 96% 30.00 in 10.0 mi Calm Calm - N/A   Clear
8:55 AM 36.9 °F - 33.6 °F 88% 30.00 in 10.0 mi Calm Calm - N/A   Clear
9:15 AM 40.3 °F - 35.2 °F 82% 30.01 in 10.0 mi Calm Calm - N/A   Clear
9:35 AM 42.8 °F - 36.5 °F 78% 30.01 in 10.0 mi Calm Calm - N/A   Clear
10:15 AM 49.6 °F - 39.0 °F 67% 30.03 in 10.0 mi Calm Calm - N/A   Clear
10:35 AM 51.4 °F - 41.2 °F 68% 30.04 in 10.0 mi WNW 3.5 mph - N/A   Clear
10:55 AM 53.6 °F - 42.1 °F 65% 30.03 in 10.0 mi Calm Calm - N/A   Clear
11:15 AM 55.6 °F - 42.3 °F 61% 30.04 in 10.0 mi Calm Calm - N/A   Clear
11:35 AM 56.8 °F - 41.4 °F 56% 30.04 in 10.0 mi Calm Calm - N/A   Clear
12:15 PM 60.1 °F - 40.8 °F 49% 30.04 in 10.0 mi Calm Calm - N/A   Clear
12:35 PM 61.0 °F - 39.7 °F 46% 30.04 in 10.0 mi Calm Calm - N/A   Clear
12:55 PM 61.9 °F - 39.4 °F 43% 30.03 in 10.0 mi NW 4.6 mph - N/A   Clear
1:15 PM 62.6 °F - 38.3 °F 41% 30.03 in 10.0 mi Calm Calm - N/A   Clear
1:35 PM 63.0 °F - 36.9 °F 38% 30.02 in 10.0 mi Calm Calm - N/A   Clear
1:55 PM 64.9 °F - 38.3 °F 37% 30.01 in 10.0 mi Calm Calm - N/A   Clear
2:15 PM 65.7 °F - 38.1 °F 36% 30.01 in 10.0 mi SE 3.5 mph - N/A   Clear
2:35 PM 66.0 °F - 38.1 °F 36% 30.01 in 10.0 mi Calm Calm - N/A   Clear
3:15 PM 66.0 °F - 39.6 °F 38% 29.99 in 10.0 mi East 5.8 mph - N/A   Clear
3:35 PM 65.7 °F - 38.3 °F 37% 29.99 in 10.0 mi SE 3.5 mph - N/A   Clear
3:55 PM 66.2 °F - 36.1 °F 33% 29.99 in 10.0 mi Calm Calm - N/A   Clear
4:15 PM 67.3 °F - 35.4 °F 31% 29.99 in 10.0 mi ENE 6.9 mph - N/A   Clear
4:35 PM 66.6 °F - 34.9 °F 31% 29.99 in 10.0 mi East 4.6 mph - N/A   Clear
4:55 PM 66.2 °F - 34.9 °F 31% 29.99 in 10.0 mi ENE 5.8 mph - N/A   Clear
5:15 PM 64.9 °F - 35.8 °F 34% 29.99 in 10.0 mi East 6.9 mph - N/A   Clear
5:35 PM 63.3 °F - 37.0 °F 38% 29.99 in 10.0 mi East 6.9 mph - N/A   Clear
5:55 PM 61.0 °F - 36.1 °F 40% 29.99 in 10.0 mi East 4.6 mph - N/A   Clear
6:35 PM 56.1 °F - 36.1 °F 47% 29.99 in 10.0 mi East 6.9 mph - N/A   Clear
6:55 PM 52.9 °F - 36.9 °F 55% 30.00 in 10.0 mi East 4.6 mph - N/A   Clear
7:15 PM 48.6 °F - 37.4 °F 65% 30.01 in 10.0 mi East 4.6 mph - N/A   Clear
7:35 PM 47.7 °F - 37.0 °F 67% 30.01 in 10.0 mi East 4.6 mph - N/A   Clear
8:15 PM 47.8 °F - 36.7 °F 65% 30.02 in 10.0 mi East 4.6 mph - N/A   Clear
8:35 PM 48.0 °F - 36.1 °F 63% 30.02 in 10.0 mi ESE 4.6 mph - N/A   Clear
8:55 PM 44.8 °F - 36.5 °F 73% 30.02 in 10.0 mi Calm Calm - N/A   Clear
9:15 PM 43.9 °F - 35.6 °F 73% 30.03 in 10.0 mi Calm Calm - N/A   Clear
9:35 PM 45.5 °F - 35.1 °F 67% 30.03 in 10.0 mi Calm Calm - N/A   Clear
9:55 PM 46.0 °F - 35.1 °F 66% 30.03 in 10.0 mi Calm Calm - N/A   Clear
10:15 PM 41.7 °F - 35.4 °F 78% 30.03 in 10.0 mi Calm Calm - N/A   Clear
10:35 PM 40.5 °F - 35.2 °F 82% 30.03 in 10.0 mi Calm Calm - N/A   Clear
10:55 PM 40.3 °F - 34.7 °F 80% 30.03 in 10.0 mi Calm Calm - N/A   Clear
11:15 PM 40.8 °F - 34.7 °F 79% 30.03 in 10.0 mi Calm Calm - N/A   Clear
11:35 PM 38.5 °F - 33.4 °F 82% 30.03 in 10.0 mi Calm Calm - N/A   Clear